Location: The Saddle
(36.8333°N, 80.3417°W)
Time: 05:06:23
(UTC-04:00)

Vanguard 3 - Pass Details

Date: 24 February 2024
Orbit: 510 x 3234 km, 33.3° (Epoch: 24 April)

Event Time Altitude Azimuth Distance (km) Brightness Sun altitude
Rises 21:35:17 0° 246° (WSW) 6,922 12.4 -41.1°
Reaches altitude 10° 21:39:43 10° 245° (WSW) 6,055 11.9 -41.9°
Enters shadow 21:58:37 71° 183° (S) 3,208 9.7 -45.3°
